Weather History for Chicago Midway, IL

Change the Weather History Date:

Tuesday, April 3, 2012

  Actual Average Record
Temperature  
Mean Temperature 59 °F 46 °F  
Max Temperature 70 °F 54 °F 81 °F (1956)
Min Temperature 48 °F 39 °F 19 °F (1954)
Degree Days  
Heating Degree Days 6 20  
Month to date heating degree days 29 60  
Since 1 July heating degree days 5383  
Cooling Degree Days 0 0  
Month to date cooling degree days 0 0  
Year to date cooling degree days 51 1  
Growing Degree Days 10 (Base 50)    
Moisture  
Dew Point 41 °F    
Average Humidity 57    
Maximum Humidity 66    
Minimum Humidity 45    
Precipitation  
Precipitation 0.00 in 0.11 in 1.08 in (2014)
Month to date precipitation 0.20 0.34  
Year to date precipitation 4.24 7.06  
Sea Level Pressure  
Sea Level Pressure 29.88 in    
Wind  
Wind Speed 10 mph (ENE)    
Max Wind Speed 23 mph    
Max Gust Speed 29 mph    
Visibility 10 miles    
Events      
T = Trace of Precipitation, MM = Missing Value Source: NWS Daily Summary

Daily Weather History Graph

Daily Weather History Graph

Search for Another Location

Airport:

Trip Planner

Search our weather history database for the weather conditions in past years. The results will help you decide how hot, cold, wet, or windy it might be!

Date:

Astronomy

Apr. 03, 2012 Rise Set
Actual Time 6:29 AM CDT 7:19 PM CDT
Civil Twilight 6:01 AM CDT 7:47 PM CDT
Nautical Twilight 5:28 AM CDT 8:21 PM CDT
Astronomical Twilight 4:53 AM CDT 8:55 PM CDT
Moon 4:00 PM CDT (4/3) 4:20 AM CDT (4/3)
Length of Visible Light 13h 46m
Length of Day
12h 49m
Waxing Gibbous, 87% of the Moon is Illuminated
Apr 3
Waxing Gibbous
Apr 6
Full
Apr 13
Last Quarter
Apr 21
New
Apr 29
First Quarter

Hourly Weather History & Observations

Time (CDT) Temp. Dew Point Humidity Pressure Visibility Wind Dir Wind Speed Gust Speed Precip Events Conditions
12:51 AM 55.9 °F 37.9 °F 51% 29.87 in 10.0 mi SE 9.2 mph - N/A   Clear
1:51 AM 55.9 °F 37.9 °F 51% 29.86 in 10.0 mi SE 9.2 mph - N/A   Clear
2:51 AM 55.0 °F 37.9 °F 53% 29.85 in 10.0 mi ESE 6.9 mph - N/A   Clear
3:51 AM 53.6 °F 37.4 °F 54% 29.85 in 10.0 mi ESE 4.6 mph - N/A   Clear
4:51 AM 52.0 °F 39.0 °F 61% 29.85 in 10.0 mi ESE 5.8 mph - N/A   Clear
5:51 AM 52.0 °F 39.0 °F 61% 29.83 in 10.0 mi SSE 6.9 mph - N/A   Partly Cloudy
6:51 AM 52.0 °F 39.0 °F 61% 29.85 in 10.0 mi South 4.6 mph - N/A   Scattered Clouds
7:51 AM 53.1 °F 39.9 °F 61% 29.86 in 10.0 mi SSW 3.5 mph - N/A   Scattered Clouds
8:51 AM 57.9 °F 43.0 °F 58% 29.85 in 10.0 mi South 6.9 mph - N/A   Scattered Clouds
9:51 AM 62.1 °F 46.0 °F 56% 29.87 in 10.0 mi North 5.8 mph - N/A   Scattered Clouds
10:51 AM 62.1 °F 46.0 °F 56% 29.88 in 10.0 mi NE 8.1 mph - N/A   Scattered Clouds
11:51 AM 66.0 °F 46.9 °F 50% 29.85 in 10.0 mi ENE 3.5 mph - N/A   Scattered Clouds
12:51 PM 68.0 °F 46.9 °F 47% 29.84 in 10.0 mi ENE 8.1 mph - N/A   Mostly Cloudy
1:51 PM 69.1 °F 46.9 °F 45% 29.83 in 10.0 mi NE 8.1 mph - N/A   Overcast
2:51 PM 64.0 °F 46.9 °F 54% 29.85 in 10.0 mi North 11.5 mph - N/A   Overcast
3:51 PM 60.1 °F 41.0 °F 49% 29.86 in 9.0 mi North 16.1 mph - N/A   Overcast
4:51 PM 54.0 °F 39.0 °F 57% 29.89 in 9.0 mi North 18.4 mph 26.5 mph N/A   Mostly Cloudy
5:51 PM 54.0 °F 39.0 °F 57% 29.90 in 10.0 mi NNE 15.0 mph 21.9 mph N/A   Mostly Cloudy
6:51 PM 51.1 °F 39.0 °F 63% 29.92 in 10.0 mi North 15.0 mph 24.2 mph N/A   Mostly Cloudy
7:51 PM 50.0 °F 37.9 °F 63% 29.91 in 10.0 mi North 15.0 mph - N/A   Mostly Cloudy
8:51 PM 50.0 °F 37.9 °F 63% 29.93 in 10.0 mi NNE 16.1 mph - N/A   Overcast
9:51 PM 50.0 °F 37.9 °F 63% 29.93 in 10.0 mi NNE 15.0 mph - N/A   Overcast
10:51 PM 50.0 °F 37.9 °F 63% 29.95 in 10.0 mi NNE 11.5 mph - N/A   Overcast
11:51 PM 48.9 °F 37.9 °F 66% 29.94 in 10.0 mi NNE 15.0 mph 21.9 mph N/A   Overcast